• Em Portugal
  • Lista de países
  • Para 7 dias
  • Temperatura da água
  • Mapas de satélite
  • Mapa do tempo
  • Widgets de tempo
  • user-avatar
    Iniciar Sessão

    Previsão horária em Grzedy

    Hoje, 19 Julho, Quinta-feira

    Tempo Temperatura Precipitação Vento Pressão Humidade
    00:00 +16°C° 0 mm 2 m/s 716 mmHg 94%
    01:00 +14°C° 0 mm 3 m/s 716 mmHg 95%
    02:00 +14°C° 0 mm 3 m/s 716 mmHg 95%
    03:00 +14°C° 0 mm 3 m/s 716 mmHg 95%
    04:00 +14°C° 0 mm 3 m/s 716 mmHg 96%
    05:00 +14°C° 0 mm 4 m/s 716 mmHg 92%
    06:00 +15°C° 0 mm 4 m/s 717 mmHg 89%
    07:00 +16°C° 0 mm 5 m/s 717 mmHg 86%
    08:00 +17°C° 0,1 mm 5 m/s 717 mmHg 83%
    09:00 +19°C° 0,1 mm 5 m/s 717 mmHg 80%
    10:00 +19°C° 0,1 mm 5 m/s 717 mmHg 77%
    11:00 +19°C° 0,2 mm 5 m/s 717 mmHg 77%
    12:00 +19°C° 0,2 mm 5 m/s 717 mmHg 77%
    13:00 +20°C° 0,2 mm 5 m/s 717 mmHg 77%
    14:00 +20°C° 0,1 mm 5 m/s 717 mmHg 77%
    15:00 +20°C° 0,1 mm 5 m/s 717 mmHg 77%
    16:00 +20°C° 0,1 mm 5 m/s 717 mmHg 78%
    17:00 +19°C° 0 mm 4 m/s 717 mmHg 79%
    18:00 +19°C° 0 mm 4 m/s 717 mmHg 81%
    19:00 +18°C° 0 mm 3 m/s 717 mmHg 82%
    20:00 +17°C° 0 mm 3 m/s 717 mmHg 86%
    21:00 +17°C° 0 mm 2 m/s 717 mmHg 89%
    22:00 +16°C° 0 mm 2 m/s 717 mmHg 92%
    23:00 +15°C° 0 mm 2 m/s 717 mmHg 92%

    Amanhã, 20 Julho, Sexta-feira

    Tempo Temperatura Precipitação Vento Pressão Humidade
    00:00 +15°C° 0 mm 2 m/s 717 mmHg 92%
    01:00 +15°C° 0 mm 2 m/s 717 mmHg 92%
    02:00 +14°C° 0 mm 2 m/s 717 mmHg 92%
    03:00 +14°C° 0 mm 2 m/s 717 mmHg 93%
    04:00 +13°C° 0 mm 2 m/s 717 mmHg 93%
    05:00 +15°C° 0 mm 2 m/s 717 mmHg 87%
    06:00 +16°C° 0 mm 2 m/s 717 mmHg 80%
    07:00 +17°C° 0 mm 2 m/s 718 mmHg 73%
    08:00 +19°C° 0 mm 3 m/s 718 mmHg 66%
    09:00 +20°C° 0 mm 3 m/s 718 mmHg 59%
    10:00 +21°C° 0 mm 3 m/s 718 mmHg 51%
    11:00 +22°C° 0 mm 3 m/s 718 mmHg 48%
    12:00 +24°C° 0 mm 3 m/s 718 mmHg 46%
    13:00 +25°C° 0 mm 2 m/s 717 mmHg 43%
    14:00 +25°C° 0 mm 2 m/s 717 mmHg 42%
    15:00 +25°C° 0 mm 2 m/s 717 mmHg 42%
    16:00 +25°C° 0 mm 2 m/s 717 mmHg 42%
    17:00 +24°C° 0 mm 2 m/s 716 mmHg 48%
    18:00 +22°C° 0 mm 1 m/s 716 mmHg 54%
    19:00 +21°C° 0 mm 1 m/s 716 mmHg 60%
    20:00 +20°C° 0 mm 1 m/s 716 mmHg 63%
    21:00 +18°C° 0 mm 1 m/s 716 mmHg 65%
    22:00 +15°C° 0 mm 1 m/s 716 mmHg 68%
    23:00 +15°C° 0 mm 1 m/s 716 mmHg 68%

    Depois de amanhã, 21 Julho, Sábado

    Tempo Temperatura Precipitação Vento Pressão Humidade
    00:00 +15°C° 0 mm 1 m/s 715 mmHg 69%
    01:00 +14°C° 0 mm 1 m/s 715 mmHg 69%
    02:00 +14°C° 0 mm 1 m/s 715 mmHg 70%
    03:00 +14°C° 0 mm 1 m/s 715 mmHg 71%
    04:00 +14°C° 0 mm 1 m/s 715 mmHg 72%
    05:00 +16°C° 0 mm 1 m/s 715 mmHg 69%
    06:00 +18°C° 0 mm 1 m/s 715 mmHg 66%
    07:00 +20°C° 0 mm 1 m/s 715 mmHg 63%
    08:00 +22°C° 0 mm 1 m/s 716 mmHg 58%
    09:00 +23°C° 0 mm 1 m/s 716 mmHg 53%
    10:00 +25°C° 0 mm 1 m/s 716 mmHg 48%
    11:00 +25°C° 0 mm 1 m/s 716 mmHg 47%
    12:00 +26°C° 0 mm 1 m/s 716 mmHg 46%
    13:00 +27°C° 0 mm 1 m/s 716 mmHg 44%
    14:00 +26°C° 0 mm 1 m/s 715 mmHg 45%
    15:00 +26°C° 0 mm 1 m/s 715 mmHg 45%
    16:00 +26°C° 0 mm 1 m/s 715 mmHg 46%
    17:00 +25°C° 0 mm 1 m/s 715 mmHg 52%
    18:00 +24°C° 0 mm 1 m/s 714 mmHg 58%
    19:00 +22°C° 0 mm 1 m/s 714 mmHg 64%
    20:00 +21°C° 0,1 mm 1 m/s 714 mmHg 67%
    21:00 +20°C° 0,1 mm 1 m/s 714 mmHg 69%
    22:00 +19°C° 0,1 mm 1 m/s 714 mmHg 72%
    23:00 +18°C° 0 mm 1 m/s 714 mmHg 74%

    22 Julho, Domingo

    Tempo Temperatura Precipitação Vento Pressão Humidade
    00:00 +18°C° 0 mm 1 m/s 714 mmHg 76%
    01:00 +16°C° 0 mm 1 m/s 714 mmHg 78%
    02:00 +15°C° 0 mm 0 m/s 714 mmHg 79%
    03:00 +15°C° 0 mm 0 m/s 714 mmHg 80%
    04:00 +15°C° 0 mm 0 m/s 714 mmHg 81%
    05:00 +16°C° 0 mm 0 m/s 714 mmHg 78%
    06:00 +17°C° 0 mm 0 m/s 714 mmHg 76%
    07:00 +18°C° 0 mm 0 m/s 714 mmHg 73%
    08:00 +21°C° 0,2 mm 1 m/s 714 mmHg 70%
    09:00 +22°C° 0,2 mm 1 m/s 715 mmHg 66%
    10:00 +23°C° 0,2 mm 1 m/s 715 mmHg 63%
    11:00 +24°C° 0,5 mm 1 m/s 715 mmHg 61%
    12:00 +24°C° 0,5 mm 2 m/s 714 mmHg 60%
    13:00 +25°C° 0,5 mm 2 m/s 714 mmHg 58%
    14:00 +25°C° 0,6 mm 2 m/s 714 mmHg 58%
    15:00 +25°C° 0,6 mm 3 m/s 714 mmHg 59%
    16:00 +25°C° 0,6 mm 3 m/s 714 mmHg 59%
    17:00 +24°C° 0,2 mm 3 m/s 714 mmHg 63%
    18:00 +21°C° 0,2 mm 2 m/s 714 mmHg 68%
    19:00 +20°C° 0,2 mm 2 m/s 714 mmHg 72%
    20:00 +19°C° 0 mm 2 m/s 715 mmHg 73%
    21:00 +19°C° 0 mm 1 m/s 715 mmHg 75%
    22:00 +18°C° 0 mm 1 m/s 715 mmHg 76%
    23:00 +16°C° 0 mm 1 m/s 715 mmHg 77%

    23 Julho, Segunda-feira

    Tempo Temperatura Precipitação Vento Pressão Humidade
    00:00 +16°C° 0 mm 1 m/s 715 mmHg 78%
    01:00 +15°C° 0 mm 1 m/s 715 mmHg 78%
    02:00 +15°C° 0 mm 1 m/s 716 mmHg 79%
    03:00 +14°C° 0 mm 1 m/s 716 mmHg 79%
    04:00 +14°C° 0 mm 1 m/s 716 mmHg 80%
    05:00 +16°C° 0 mm 1 m/s 716 mmHg 76%
    06:00 +17°C° 0 mm 2 m/s 717 mmHg 72%
    07:00 +19°C° 0 mm 2 m/s 717 mmHg 69%
    08:00 +20°C° 0,1 mm 2 m/s 717 mmHg 65%
    09:00 +23°C° 0,1 mm 2 m/s 718 mmHg 61%
    10:00 +24°C° 0,1 mm 3 m/s 718 mmHg 58%
    11:00 +24°C° 0,2 mm 3 m/s 718 mmHg 58%
    12:00 +24°C° 0,2 mm 3 m/s 718 mmHg 58%
    13:00 +25°C° 0,2 mm 3 m/s 718 mmHg 58%
    14:00 +25°C° 0,1 mm 3 m/s 717 mmHg 56%
    15:00 +25°C° 0,1 mm 3 m/s 717 mmHg 55%
    16:00 +25°C° 0,1 mm 3 m/s 717 mmHg 53%
    17:00 +24°C° 0 mm 3 m/s 717 mmHg 58%
    18:00 +23°C° 0 mm 2 m/s 717 mmHg 63%
    19:00 +22°C° 0 mm 1 m/s 717 mmHg 68%
    20:00 +20°C° 0 mm 1 m/s 718 mmHg 71%
    21:00 +19°C° 0 mm 1 m/s 718 mmHg 75%
    22:00 +18°C° 0 mm 1 m/s 718 mmHg 78%
    23:00 +16°C° 0 mm 1 m/s 718 mmHg 79%

    24 Julho, Terça-feira

    Tempo Temperatura Precipitação Vento Pressão Humidade
    00:00 +16°C° 0 mm 1 m/s 718 mmHg 80%
    01:00 +16°C° 0 mm 1 m/s 718 mmHg 81%
    02:00 +15°C° 0 mm 1 m/s 718 mmHg 82%
    03:00 +15°C° 0 mm 1 m/s 718 mmHg 83%
    04:00 +15°C° 0 mm 1 m/s 718 mmHg 84%
    05:00 +15°C° 0 mm 0 m/s 718 mmHg 78%
    06:00 +17°C° 0 mm 0 m/s 719 mmHg 73%
    07:00 +19°C° 0 mm 0 m/s 719 mmHg 68%
    08:00 +22°C° 0 mm 1 m/s 719 mmHg 64%
    09:00 +24°C° 0 mm 1 m/s 719 mmHg 60%
    10:00 +25°C° 0 mm 2 m/s 719 mmHg 56%
    11:00 +26°C° 0 mm 2 m/s 719 mmHg 54%
    12:00 +26°C° 0 mm 2 m/s 719 mmHg 52%
    13:00 +27°C° 0 mm 2 m/s 719 mmHg 50%
    14:00 +27°C° 0 mm 2 m/s 719 mmHg 51%
    15:00 +27°C° 0 mm 2 m/s 719 mmHg 51%
    16:00 +27°C° 0 mm 2 m/s 719 mmHg 51%
    17:00 +26°C° 0 mm 2 m/s 719 mmHg 58%
    18:00 +25°C° 0 mm 2 m/s 718 mmHg 64%
    19:00 +24°C° 0 mm 2 m/s 718 mmHg 70%
    20:00 +21°C° 0 mm 2 m/s 719 mmHg 75%
    21:00 +20°C° 0 mm 2 m/s 719 mmHg 80%
    22:00 +18°C° 0 mm 2 m/s 719 mmHg 84%
    23:00 +18°C° 0 mm 2 m/s 719 mmHg 85%
    Mostrar mais